[[{"header":{"parameterUnit":"m.s-1","parameterCategory":1,"la1":30.2991,"la2":30.254,"lo1":-89.0895,"lo2":-89.0444,"dy":0.0017,"dx":0.0017,"nx":28,"ny":28,"refTime":"2024-05-27T09:00:00:Z","depth":0,"parameterNumber":2,"parameterNumberName":"U-component_of_WINDS"},"data":[0,0,0,0,0,0,0,0,0,0,0,0,0,0,0,0,0,0,0,0,0,0,0,0,0,0,0,0,0,0,0,0,0,0,0,0,0,0,0,0,0,0,0,0,0,0,0,0,0,0,0,0,0,0,0,0,0,0,-2.7921,-2.792,0,-2.7831,-2.783,-2.7829,-2.773,-2.7728,-2.7727,-2.7725,-2.7633,-2.7632,-2.7631,0,0,0,0,0,0,0,0,0,0,0,0,0,-2.8007,-2.8006,-2.7921,-2.792,-2.7919,-2.7832,-2.783,-2.7829,-2.773,-2.7728,-2.7726,-2.7725,-2.7633,-2.7632,-2.7631,0,0,0,0,0,0,0,0,0,0,0,0,0,-2.7949,-2.8006,-2.7921,-2.7859,-2.7852,-2.7832,-2.783,-2.7829,-2.773,-2.7728,-2.7726,-2.7724,-2.7634,-2.7632,-2.763,-2.7664,0,0,-2.7625,-2.7625,0,0,0,0,0,0,0,0,-2.7953,-2.7946,-2.7869,-2.7863,-2.7856,-2.7789,-2.7827,-2.7774,-2.7731,-2.7777,-2.7725,-2.7723,-2.7687,-2.7681,-2.7668,-2.766,-2.7656,-2.7625,-2.7624,-2.7624,-2.7623,0,0,0,0,0,0,0,-2.7957,-2.7949,-2.7886,-2.7868,-2.786,-2.7836,-2.7825,-2.7816,-2.7745,-2.7772,-2.7765,-2.7756,-2.7683,-2.767,-2.7666,-2.7654,-2.7625,-2.7624,-2.7623,-2.7622,-2.7671,-2.7673,0,0,0,0,0,0,-2.797,-2.7953,-2.7888,-2.7883,-2.79,-2.7836,-2.7824,-2.7813,-2.7745,-2.7732,-2.7758,-2.7752,-2.7674,-2.7668,-2.7662,-2.7697,-2.7624,-2.7622,-2.7621,-2.7669,-2.7671,-2.7674,0,0,0,0,0,0,-2.7972,-2.7965,-2.7892,-2.7916,-2.7905,-2.7837,-2.7825,-2.7812,-2.78,-2.7734,-2.7721,-2.7758,-2.7672,-2.7664,-2.7665,-2.7693,-2.7621,-2.762,-2.7666,-2.7669,-2.7673,-2.7768,0,0,0,0,0,0,-2.7975,-2.7967,-2.7978,-2.7917,-2.7904,-2.7896,-2.7827,-2.7812,-2.7797,-2.7788,-2.7731,-2.7719,-2.767,-2.7668,-2.7663,-2.7689,-2.7618,-2.7663,-2.7668,-2.7672,-2.7762,-2.7775,-2.7785,0,0,0,0,0,-2.7979,-2.8008,-2.7979,-2.7972,-2.7917,-2.7898,-2.789,-2.7833,-2.78,-2.7811,-2.7769,-2.7721,-2.7691,-2.7669,-2.7663,-2.7689,-2.7661,-2.7666,-2.7671,-2.7757,-2.7772,-2.7785,0,0,0,0,0,0,-2.8073,-2.7999,-2.7966,-2.7976,-2.7944,-2.7881,-2.7893,-2.7851,-2.7827,-2.782,-2.775,-2.7738,-2.7747,-2.7718,-2.7694,-2.7719,-2.7669,-2.7673,-2.7737,-2.7751,-2.7762,-2.7768,-2.7617,0,0,0,0,0,-2.8095,-2.8086,-2.8021,-2.8037,-2.8023,-2.7961,-2.7951,-2.791,-2.7874,-2.786,-2.7817,-2.7784,-2.7768,-2.7758,-2.7739,-2.7759,-2.7745,-2.7774,-2.7786,-2.7795,-2.7799,-2.7809,-2.7821,-2.7691,-2.7691,-2.7691,0,0,-2.814,-2.8098,-2.8096,-2.8055,-2.8025,-2.8017,-2.795,-2.7944,-2.7938,-2.7858,-2.7856,-2.7825,-2.7784,-2.7795,-2.7797,-2.7771,-2.7833,-2.7802,-2.781,-2.7808,-2.7816,-2.7828,-2.7839,-2.7694,-2.7694,-2.7693,0,0,-2.8218,-2.8186,-2.8195,-2.8168,-2.8124,-2.8084,-2.8087,-2.8031,-2.8007,-2.8005,-2.7945,-2.7938,-2.791,-2.7883,-2.7866,-2.7939,-2.7894,-2.7935,-2.7994,-2.8004,-2.8015,-2.8023,-2.8049,-2.806,-2.794,-2.794,-2.794,0,-2.8278,-2.8264,-2.8205,-2.8204,-2.8188,-2.8118,-2.8128,-2.8104,-2.8057,-2.8048,-2.8019,-2.7985,-2.7952,-2.7956,-2.7975,-2.7963,-2.7965,-2.794,-2.8018,-2.8026,-2.8034,-2.8058,-2.8068,-2.7945,-2.7944,-2.7944,-2.7943,0,-2.8342,-2.8333,-2.8347,-2.8304,-2.829,-2.8294,-2.8237,-2.823,-2.8192,-2.8155,-2.8155,-2.8114,-2.8086,-2.8084,-2.8047,-2.8084,-2.8069,-2.8031,-2.7979,-2.8052,-2.8074,-2.8082,-2.7953,-2.7951,-2.7949,-2.7948,0,0,-2.8472,-2.84,-2.8405,-2.8386,-2.8335,-2.8328,-2.8331,-2.8304,-2.83,-2.8271,-2.8271,-2.8252,-2.8217,-2.8197,-2.8157,-2.8167,-2.8228,-2.8126,-2.8125,-2.8146,-2.8268,-2.8296,-2.8308,-2.8199,-2.82,-2.8202,-2.8271,0,-2.8539,-2.8539,-2.8488,-2.8502,-2.8494,-2.843,-2.8432,-2.8402,-2.8369,-2.8358,-2.8321,-2.8308,-2.8263,-2.8251,-2.8258,-2.8219,-2.8251,-2.8213,-2.8198,-2.8198,-2.8209,-2.8319,-2.8348,-2.8415,-2.8279,-2.828,-2.8281,0,-2.8617,-2.8594,-2.8608,-2.8559,-2.8554,-2.8557,-2.853,-2.852,-2.8486,-2.8461,-2.8442,-2.8397,-2.8397,-2.8351,-2.8351,-2.8326,-2.8318,-2.8298,-2.83,-2.8294,-2.8243,-2.8315,-2.8435,-2.8445,-2.8294,-2.8293,-2.8292,0,-2.871,-2.8683,-2.8688,-2.8674,-2.8617,-2.8621,-2.8597,-2.8561,-2.8549,-2.8527,-2.8519,-2.8497,-2.8484,-2.8468,-2.8419,-2.839,-2.8425,-2.8374,-2.8404,-2.8406,-2.8412,-2.8412,-2.8531,-2.841,-2.841,-2.841,-2.8409,0,-2.8789,-2.88,-2.8729,-2.8732,-2.8743,-2.8686,-2.8698,-2.8669,-2.8638,-2.8634,-2.8578,-2.8576,-2.8512,-2.8504,-2.8466,-2.8472,-2.8467,-2.8447,-2.8436,-2.8451,-2.8453,-2.8442,-2.8436,-2.8412,-2.8412,-2.8411,-2.8411,0,-2.8893,-2.8846,-2.8847,-2.8795,-2.8783,-2.8793,-2.8748,-2.8749,-2.8715,-2.8712,-2.8708,-2.8653,-2.864,-2.8591,-2.8566,-2.854,-2.8558,-2.8539,-2.857,-2.8563,-2.8596,-2.8593,-2.871,-2.8723,-2.8596,-2.8597,-2.8598,0,-2.8946,-2.8953,-2.8903,-2.8897,-2.8876,-2.8868,-2.8856,-2.8802,-2.8793,-2.8756,-2.8762,-2.8746,-2.8729,-2.8712,-2.867,-2.8652,-2.863,-2.8673,-2.8627,-2.8642,-2.863,-2.863,-2.863,-2.8682,-2.8684,-2.8685,-2.8686,0,-2.9045,-2.9022,-2.9008,-2.8987,-2.8975,-2.8956,-2.8933,-2.8932,-2.8872,-2.8865,-2.8852,-2.8839,-2.8815,-2.88,-2.8775,-2.8751,-2.8709,-2.8702,-2.8708,-2.8721,-2.8739,-2.8729,-2.8596,-2.8698,-2.8697,-2.8696,-2.8696,-2.8695,-2.9123,-2.9127,-2.9093,-2.908,-2.9058,-2.9039,-2.9038,-2.9005,-2.8993,-2.897,-2.8939,-2.8931,-2.8899,-2.8862,-2.8842,-2.8835,-2.8811,-2.882,-2.8822,-2.8824,-2.8832,-2.8743,-2.8831,-2.883,-2.883,-2.883,-2.8829,0,-2.9218,-2.9194,-2.9183,-2.9154,-2.9145,-2.9108,-2.9082,-2.9077,-2.907,-2.9044,-2.903,-2.9017,-2.9003,-2.8962,-2.8944,-2.8946,-2.8927,-2.8943,-2.8941,-2.8937,-2.8854,-2.885,-2.896,-2.896,-2.896,-2.8959,-2.8959,-2.8959,-2.9266,-2.9271,-2.9245,-2.924,-2.9216,-2.9207,-2.9196,-2.9179,-2.9158,-2.9146,-2.9134,-2.9108,-2.9077,-2.9057,-2.9043,-2.9032,-2.9027,-2.905,-2.9032,-2.8955,-2.8942,-2.893,-2.8927,-2.905,-2.905,-2.9115,-2.9115,-2.9116]},{"header":{"parameterUnit":"m.s-1","parameterCategory":1,"la1":30.2991,"la2":30.254,"lo1":-89.0895,"lo2":-89.0444,"dy":0.0017,"dx":0.0017,"nx":28,"ny":28,"refTime":"2024-05-27T09:00:00:Z","depth":0,"parameterNumber":3,"parameterNumberName":"V-component_of_WINDS"},"data":[0,0,0,0,0,0,0,0,0,0,0,0,0,0,0,0,0,0,0,0,0,0,0,0,0,0,0,0,0,0,0,0,0,0,0,0,0,0,0,0,0,0,0,0,0,0,0,0,0,0,0,0,0,0,0,0,0,0,1.8263,1.8263,0,1.8309,1.831,1.831,1.8338,1.8339,1.8339,1.8339,1.8382,1.8383,1.8384,0,0,0,0,0,0,0,0,0,0,0,0,0,1.8195,1.8196,1.8263,1.8263,1.8264,1.8309,1.831,1.831,1.8338,1.8339,1.8339,1.8339,1.8382,1.8383,1.8384,0,0,0,0,0,0,0,0,0,0,0,0,0,1.8231,1.8197,1.8263,1.8283,1.8286,1.8309,1.831,1.8311,1.8338,1.8339,1.8339,1.8339,1.8381,1.8383,1.8384,1.8389,0,0,1.8389,1.839,0,0,0,0,0,0,0,0,1.8229,1.8234,1.828,1.8282,1.8285,1.8318,1.8302,1.8337,1.8338,1.8318,1.8339,1.8339,1.836,1.8364,1.8372,1.8391,1.8393,1.8389,1.839,1.8391,1.8391,0,0,0,0,0,0,0,1.8227,1.8232,1.8281,1.828,1.8283,1.8289,1.8295,1.8309,1.8337,1.832,1.8322,1.8328,1.8362,1.837,1.8373,1.8394,1.8389,1.839,1.8391,1.8392,1.842,1.842,0,0,0,0,0,0,1.8221,1.823,1.828,1.8282,1.8257,1.8291,1.8297,1.8307,1.8337,1.8342,1.8327,1.8329,1.8368,1.8371,1.8375,1.8383,1.8391,1.8392,1.8393,1.842,1.842,1.842,0,0,0,0,0,0,1.822,1.8226,1.8278,1.8257,1.8264,1.8292,1.8303,1.8308,1.8317,1.8343,1.8348,1.8331,1.8368,1.8372,1.8386,1.8384,1.8393,1.8394,1.842,1.842,1.842,1.8398,0,0,0,0,0,0,1.8218,1.8225,1.8228,1.8257,1.8265,1.8289,1.8303,1.8309,1.832,1.8322,1.8348,1.8352,1.8368,1.8383,1.8387,1.8387,1.8395,1.842,1.842,1.842,1.8399,1.8397,1.8395,0,0,0,0,0,1.8215,1.8218,1.8228,1.8233,1.8269,1.8289,1.8293,1.8313,1.8319,1.8322,1.8339,1.8351,1.8384,1.8385,1.8389,1.8389,1.8421,1.842,1.842,1.84,1.8397,1.8396,0,0,0,0,0,0,1.8186,1.8222,1.8233,1.8246,1.8264,1.8294,1.8297,1.831,1.8326,1.8327,1.835,1.8356,1.8367,1.8379,1.8379,1.8395,1.8404,1.8404,1.8387,1.8385,1.8383,1.8379,1.8397,0,0,0,0,0,1.8182,1.8196,1.8227,1.8235,1.8244,1.8269,1.8278,1.8293,1.8312,1.8319,1.8337,1.8354,1.8369,1.8378,1.8392,1.8401,1.8407,1.8403,1.8402,1.84,1.84,1.8406,1.8405,1.8419,1.8419,1.8419,0,0,1.8172,1.8194,1.8201,1.823,1.8246,1.8259,1.8275,1.8288,1.8298,1.8321,1.8335,1.8349,1.837,1.8381,1.8387,1.8392,1.8398,1.84,1.8398,1.8399,1.8406,1.8404,1.8403,1.8418,1.8418,1.8418,0,0,1.8161,1.8179,1.8188,1.8204,1.8229,1.8246,1.8248,1.8276,1.8287,1.8302,1.8319,1.8331,1.8355,1.837,1.838,1.8376,1.8388,1.838,1.837,1.8376,1.8375,1.8374,1.8373,1.8372,1.838,1.838,1.838,0,1.8145,1.8167,1.8191,1.8204,1.8216,1.8239,1.8248,1.8262,1.829,1.8297,1.8303,1.8335,1.835,1.8365,1.8365,1.8372,1.8375,1.8377,1.8374,1.8373,1.8372,1.8371,1.8371,1.8379,1.8379,1.8379,1.8379,0,1.8146,1.8161,1.8165,1.8194,1.8206,1.8217,1.8242,1.8252,1.8265,1.8281,1.8297,1.8317,1.8336,1.8341,1.8353,1.8358,1.836,1.8369,1.8378,1.837,1.8369,1.8369,1.8377,1.8378,1.8378,1.8378,0,0,1.8116,1.8159,1.816,1.8173,1.8203,1.8215,1.8227,1.8248,1.8256,1.8274,1.8284,1.8305,1.8315,1.8326,1.8341,1.8346,1.8342,1.8354,1.8355,1.8351,1.8348,1.8341,1.834,1.835,1.835,1.835,1.8347,0,1.8108,1.8133,1.8155,1.8171,1.8185,1.8208,1.8219,1.8238,1.8254,1.8267,1.8284,1.8299,1.831,1.8317,1.8324,1.8341,1.8341,1.8342,1.8359,1.8359,1.8352,1.834,1.8331,1.8327,1.8346,1.8346,1.8346,0,1.8102,1.8122,1.814,1.817,1.8176,1.8185,1.8207,1.822,1.8242,1.8253,1.8268,1.8284,1.8297,1.8305,1.8323,1.8323,1.8332,1.8341,1.8342,1.8343,1.8352,1.834,1.8326,1.8325,1.8346,1.8346,1.8346,0,1.8078,1.8109,1.8124,1.8135,1.817,1.8176,1.8191,1.8213,1.8225,1.8243,1.8251,1.827,1.828,1.8294,1.8315,1.8319,1.8331,1.8341,1.834,1.8339,1.834,1.8339,1.8326,1.8347,1.8347,1.8347,1.8347,0,1.8067,1.8076,1.8114,1.8122,1.8134,1.816,1.8171,1.8187,1.8207,1.8219,1.8241,1.8251,1.8278,1.8292,1.8308,1.832,1.8325,1.8333,1.8337,1.8331,1.833,1.8336,1.8337,1.8347,1.8347,1.8347,1.8347,0,1.8041,1.8066,1.8084,1.8117,1.8126,1.8133,1.816,1.8169,1.8188,1.8203,1.8207,1.8235,1.8253,1.8275,1.8299,1.831,1.832,1.8327,1.8313,1.8315,1.8313,1.8313,1.8302,1.8302,1.8323,1.8323,1.8323,0,1.8031,1.804,1.8075,1.8085,1.81,1.8116,1.8129,1.8155,1.8167,1.8194,1.82,1.8219,1.8236,1.8263,1.8284,1.8302,1.8309,1.8305,1.8312,1.8306,1.8309,1.8308,1.8309,1.8302,1.8302,1.8301,1.8301,0,1.8012,1.8025,1.8043,1.8066,1.8081,1.81,1.8119,1.8126,1.8157,1.8169,1.8188,1.8201,1.8227,1.8246,1.8268,1.8282,1.8296,1.8299,1.83,1.8293,1.8284,1.8289,1.8307,1.8299,1.8299,1.8299,1.8299,1.8299,1.7993,1.8002,1.8029,1.8048,1.8067,1.8085,1.8096,1.8117,1.8133,1.8158,1.8172,1.8191,1.8214,1.8245,1.8258,1.8273,1.8278,1.8279,1.8279,1.8279,1.8277,1.8283,1.8277,1.8277,1.8277,1.8277,1.8277,0,1.7974,1.7993,1.8011,1.804,1.8055,1.807,1.8093,1.8105,1.8122,1.8143,1.816,1.8182,1.8201,1.8225,1.8245,1.8252,1.8259,1.8257,1.8256,1.8259,1.8271,1.8268,1.825,1.825,1.825,1.825,1.825,1.8251,1.7966,1.7982,1.7998,1.8024,1.8043,1.8062,1.8074,1.8091,1.8109,1.8133,1.815,1.8166,1.8189,1.8211,1.8229,1.8236,1.8242,1.8237,1.8245,1.8255,1.8258,1.826,1.8258,1.8238,1.8238,1.8232,1.8232,1.8232]}]]